www.pogodaiklimat.ru

Погода и климат >> Архив погоды >> Южная Африка >> Маргит


ПОГОДА в Маргите

  • Прогноз погоды в Маргите
  • Монитор погоды в Маргите

АРХИВ ПОГОДЫ в Маргите

Время (UTC), дата Ветер
(напр.,м/с)
 
Видим.   Явления Облачность Т
(С)
Тd
(С)
f
(%)
Тe
(С)
Тes
(С)
Комфортность P
(гПа)
Po
(гПа)
Тmin
(С)
Tmax
(С)
R
(мм)
R24
(мм)
S
(см)
15 18.06 0 н/о н/о +19.6 +15.7 78 1029.1 1011.1 +19.6 +23.3
18 18.06 0 н/о н/о +18.6 +15.5 82 1030.9 1012.8 +17.9 +23.3
21 18.06 0 н/о н/о +16.9 +15.1 89 1031.9 1013.7 +16.8 +23.3
00 19.06 0 н/о н/о +16.0 +14.0 88 1031.0 1012.7 +15.5 +23.3
03 19.06 0 н/о н/о +14.8 +13.1 90 1030.5 1012.2 +14.2 +23.3
06 19.06 0 н/о н/о +15.0 +11.6 80 1031.3 1013.0 +13.8
09 19.06 0 н/о н/о +21.3 +11.1 52 1030.2 1012.3 +13.8 +21.3
12 19.06 0 н/о н/о +21.4 +14.1 63 1027.5 1009.6 +13.8 +22.1
15 19.06 0 н/о н/о +18.7 +14.6 77 1027.9 1009.8 +18.7 +22.1
18 19.06 0 н/о н/о +17.1 +14.2 83 1028.9 1010.7 +17.0 +22.1
21 19.06 0 н/о н/о +16.0 +13.1 83 1028.9 1010.7 +16.0 +22.1
00 20.06 0 н/о н/о +14.7 +12.4 86 1028.3 1010.0 +14.7 +22.1
03 20.06 0 н/о н/о +13.6 +10.7 83 1027.7 1009.3 +13.5 +22.1
06 20.06 0 н/о н/о +13.4 +7.4 67 1028.3 1009.9 +12.5
09 20.06 0 н/о н/о +20.1 +8.5 47 1028.4 1010.4 +12.5 +20.1
12 20.06 0 н/о н/о +21.3 +12.3 56 1025.4 1007.5 +12.5 +21.8
15 20.06 0 н/о н/о +18.6 +12.2 66 1025.0 1007.0 +18.6 +21.8
18 20.06 0 н/о н/о +16.4 +12.4 77 1025.6 1007.4 +16.2 +21.8
21 20.06 0 н/о н/о +16.6 +13.1 80 1024.6 1006.5 +16.1 +21.8
00 21.06 0 н/о н/о +12.6 +9.4 81 1024.4 1006.0 +12.2 +21.8
03 21.06 0 н/о н/о +12.8 +6.6 66 1022.2 1003.9 +11.4 +21.8
06 21.06 0 н/о н/о +13.2 +4.6 56 1021.3 1003.0 +11.4
09 21.06 0 н/о н/о +19.2 +7.4 46 1020.7 1002.8 +11.4 +19.2
12 21.06 0 н/о н/о +22.5 +8.4 40 1017.6 1000.0 +11.4 +22.8
15 21.06 0 н/о н/о +18.6 +11.0 61 1017.1 999.2 +18.6 +22.9
18 21.06 0 н/о н/о +15.4 +8.2 62 1017.0 998.9 +13.8 +22.9
21 21.06 0 н/о н/о +15.7 +5.4 50 1016.7 998.7 +13.8 +22.9
00 22.06 0 н/о н/о +18.7 -1.5 25 1016.1 998.3 +13.8 +22.9
03 22.06 0 н/о н/о +17.6 -1.4 27 1016.4 998.5 +13.8 +22.9
06 22.06 0 н/о н/о +19.7 -1.2 24 1017.3 999.5 +13.8
09 22.06 0 н/о н/о +24.6 +3.5 25 1017.7 1000.2 +13.8 +24.7
12 22.06 0 н/о н/о +26.1 +8.3 32 1016.1 998.7 +13.8 +26.8
15 22.06 0 н/о н/о +20.8 +10.7 52 1016.1 998.4 +20.8 +26.8
18 22.06 0 н/о н/о +18.3 +8.3 52 1017.9 1000.0 +17.1 +26.8
21 22.06 0 н/о н/о +17.8 +14.1 79 1018.8 1000.8 +17.1 +26.8
00 23.06 0 н/о н/о +16.2 +13.1 82 1018.4 1000.4 +16.2 +26.8
03 23.06 0 н/о н/о +15.0 +12.1 83 1017.7 999.6 +15.0 +26.8
06 23.06 0 н/о н/о +16.0 +9.2 64 1018.8 1000.7 +14.8
09 23.06 0 н/о н/о +22.1 +6.5 36 1018.6 1000.9 +14.8 +22.1
12 23.06 0 н/о н/о +21.7 +10.3 48 1016.3 998.6 +14.8 +22.7
15 23.06 0 н/о н/о +19.3 +11.4 60 1017.5 999.7 +19.3 +22.7
18 23.06 0 н/о н/о +17.2 +8.9 58 1019.5 1001.5 +15.9 +22.7
21 23.06 0 н/о н/о +16.0 +8.3 60 1020.2 1002.1 +15.6 +22.7
00 24.06 0 н/о н/о +15.0 +7.8 62 1019.8 1001.7 +13.8 +22.7
03 24.06 0 н/о н/о +13.7 +7.5 66 1019.5 1001.3 +13.0 +22.7
06 24.06 0 н/о н/о +15.4 +7.5 59 1020.1 1002.0 +13.0
09 24.06 0 н/о н/о +21.0 +8.1 43 1019.7 1001.9 +13.0 +21.1
12 24.06 0 н/о н/о +21.6 +8.3 42 1016.8 999.1 +13.0 +21.9
15 24.06 0 н/о н/о +19.8 +10.3 54 1017.9 1000.1 +19.8 +22.2
18 24.06 0 н/о н/о +14.3 +9.7 74 1020.2 1002.0 +14.3 +22.2
21 24.06 0 н/о н/о +15.1 +9.5 69 1021.0 1002.8 +13.8 +22.2
00 25.06 0 н/о н/о +14.2 +8.6 69 1021.9 1003.7 +13.8 +22.2
03 25.06 0 н/о н/о +13.8 +8.2 69 1022.6 1004.3 +13.6 +22.2
06 25.06 0 н/о н/о +14.9 +8.6 66 1024.7 1006.5 +13.3
09 25.06 0 н/о н/о +19.2 +10.0 55 1025.0 1007.0 +13.3 +19.3

 

Местоположение метеостанции Маргит (Южная Африка): широта -30.85 долгота 30.33 высота над уровнем моря 154 м.

В архиве по умолчанию представлена погода в Маргите за последнюю неделю. Архивные данные за месяц целиком и за предыдущие месяцы, начиная с января 2011 года, Вы можете получить, выбрав интересующий диапазон дат из раскрывающегося списка и нажав кнопку "Ввод!".


*Определитесь, кто Вы:
робот инопланетянин человек

Внимание! Время в таблицах - всемирное. Для получения местного времени необходимо прибавить поправку, которая равна 2 ч.

Смотрите также архив погоды в соседних городах и на ближайших метеорологических станциях:

Погода в Паддоке (Южная Африка) (13 км)
Погода в Порт-Эдварде (Южная Африка) (25 км)
Погода в Пеннингтоне (Южная Африка) (62 км)
Погода в Иксопо (Южная Африка) (82 км)
Погода в Кокстаде (Южная Африка) (97 км)
Погода в Порт Сент-Джон (Южная Африка) (114 км)
Погода в Дурбане (Южная Африка) (115 км)
Погода в Питермарицбург аэропорту (Южная Африка) (134 км)
Погода в Питермарицбурге (Южная Африка) (136 км)
Погода в Аэропорту Вирджиния (Южная Африка) (139 км)

Пояснения к столбцам:

Ветер - указаны скорость ветра в м/с - средняя за 10 мин, порывы в срок и между сроками (в фигурных скобках) и направление, откуда дует ветер: С - северный, СВ - северо-восточный, В - восточный, ЮВ - юго-восточный, Ю - южный, ЮЗ - юго-западный, З - западный, СЗ - северо-западный.
Видимость - горизонтальная дальность видимости в метрах или километрах. При видимости от 1 до 10 км при отсутствии осадков обычно наблюдается дымка, при ухудшении видимости до 1 км и менее - туман. В сухую погоду видимость может ухудшаться дымом, пылью или мглою.
Явления - указаны атмосферные явления, наблюдавшиеся в срок или в последний час перед сроком; фигурными скобками обозначены явления, наблюдавшиеся между сроками (за 1-3 часа до срока); квадратными скобками обозначены град или гололедные отложения с указанием их диаметра в мм.
Облачность - указаны через наклонную черту общая и нижняя облачность в баллах и высота нижней границы облаков в метрах; квадратными скобками обозначены формы облаков: Ci - перистые, Cs - перисто-слоистые, Cc - перисто-кучевые, Ac - высококучевые, As - высокослоистые, Sc - слоисто-кучевые, Ns - слоисто-дождевые, Cu - кучевые, Cb - кучево-дождевые. Подробнее классификацию облаков см. в Атласе облаков (PDF).
T - Температура воздуха - температура, измеренная на высоте 2 м над землей.
Td - Температура точки росы - температура, при понижении до которой содержащийся в воздухе водяной пар достигнет насыщения.
f - Относительная влажность воздуха - влажноcть воздуха, измеренная на высоте 2 м над землей.
Te - Эффективная температура - температура, которую ощущает одетый по сезону человек в тени. Характеристика душности погоды. При расчете учитывается влияние влажности воздуха и скорости ветра на теплоощущения человека.
Tes - Эффективная температура на солнце - температура, которую ощущает человек, с поправкой на солнечный нагрев. Характеристика знойности погоды. Зависит от высоты солнца над горизонтом, облачности и скорости ветра. Ночью, в пасмурную погоду, а также при ветре 12 м/с и более поправка равна нулю.
P - Атмосферное давление - приведенное к уровню моря атмосферное давление.
Po - Атмосферное давление - измеренное на уровне метеостанции атмосферное давление.
Tmin - Минимальная температура - минимум температуры воздуха на высоте 2 м над землей.
Tmax - Максимальная температура - максимум температуры воздуха на высоте 2 м над землей.
R - Количество осадков - Количество выпавших осадков за период времени, мм. При наведении курсора мыши на число - период времени, за который выпало указанное количество осадков.
R24 - Количество осадков - Количество выпавших осадков за 24 часа, мм.
S - Снежный покров - Высота снежного покрова, см. При наведении курсора мыши на число - состояние снежного покрова и степень покрытия местности в баллах.